Grand Junction, CO

4:37 AM MDT on September 15, 2019 (GMT -0600)
Walker

Weather History for KGJT - April, 2019

Change the Weather History Date:

Monday, April 8, 2019

  Actual Average Record
Temperature  
Mean Temperature 57 °F 49 °F  
Max Temperature 74 °F 63 °F 82 °F (1977)
Min Temperature 40 °F 36 °F 19 °F (1973)
Degree Days  
Heating Degree Days 8 16  
Month to date heating degree days 88 132  
Since 1 July heating degree days 5196 5164  
Cooling Degree Days 0 0  
Month to date cooling degree days 0 0  
Year to date cooling degree days 0 0  
Growing Degree Days 6 (Base 50)    
Moisture  
Dew Point 30 °F    
Average Humidity 39    
Maximum Humidity 60    
Minimum Humidity 17    
Precipitation  
Precipitation 0.00 in 0.03 in 0.46 in (1949)
Month to date precipitation 0.01 0.26  
Year to date precipitation 3.74 2.30  
Snow  
Snow 0.00 in 0.00 in 0.40 in (1953)
Month to date snowfall 0.0 0.4  
Since 1 July snowfall 17.4 18.5  
Snow Depth 0.00 in    
Sea Level Pressure  
Sea Level Pressure 30.08 in    
Wind  
Wind Speed 8 mph (East)    
Max Wind Speed 17 mph    
Max Gust Speed 24 mph    
Visibility 10 miles    
Events      
T = Trace of Precipitation, MM = Missing Value Source: NWS Daily Summary

Daily Weather History Graph

Daily Weather History Graph

Search for Another Location

Airport or City:

Astronomy

Apr. 08, 2019 Rise Set
Actual Time 6:48 AM MDT 7:44 PM MDT
Civil Twilight 6:20 AM MDT 8:11 PM MDT
Nautical Twilight 5:48 AM MDT 8:44 PM MDT
Astronomical Twilight 5:14 AM MDT 9:17 PM MDT
Moon 8:57 AM MDT (4/8) 11:16 PM MDT (4/8)
Length of Visible Light 13h 51m
Length of Day
12h 56m
Waxing Crescent, 11% of the Moon is Illuminated
Apr 8
Waxing Crescent
Apr 12
First Quarter
Apr 19
Full
Apr 26
Last Quarter
May 4
New

Hourly Weather History & Observations

Time (MDT) Temp. Windchill Dew Point Humidity Pressure Visibility Wind Dir Wind Speed Gust Speed Precip Events Conditions
12:53 AM 44.1 °F 40.8 °F 30.0 °F 58% 30.15 in 10.0 mi ESE 5.8 mph - N/A   Clear
1:53 AM 46.9 °F - 28.0 °F 48% 30.14 in 10.0 mi NE 5.8 mph - N/A   Clear
2:53 AM 46.0 °F 43.1 °F 28.0 °F 50% 30.15 in 10.0 mi East 5.8 mph - N/A   Clear
3:53 AM 43.0 °F 37.2 °F 28.0 °F 56% 30.14 in 10.0 mi ESE 10.4 mph - N/A   Clear
4:53 AM 44.1 °F 37.4 °F 27.0 °F 51% 30.15 in 10.0 mi ESE 13.8 mph - N/A   Clear
5:53 AM 43.0 °F 36.4 °F 27.0 °F 53% 30.15 in 10.0 mi ESE 12.7 mph - N/A   Clear
6:53 AM 41.0 °F 37.1 °F 28.0 °F 60% 30.17 in 10.0 mi East 5.8 mph - N/A   Clear
7:53 AM 46.9 °F - 30.0 °F 52% 30.18 in 10.0 mi ESE 12.7 mph - N/A   Clear
8:53 AM 52.0 °F - 30.0 °F 43% 30.20 in 10.0 mi ESE 8.1 mph - N/A   Clear
9:53 AM 55.9 °F - 30.9 °F 39% 30.18 in 10.0 mi ESE 5.8 mph - N/A   Clear
10:53 AM 61.0 °F - 30.0 °F 31% 30.15 in 10.0 mi SSE 8.1 mph - N/A   Clear
11:53 AM 64.0 °F - 30.9 °F 29% 30.13 in 10.0 mi Calm Calm - N/A   Clear
12:53 PM 66.0 °F - 32.0 °F 28% 30.11 in 10.0 mi Variable 3.5 mph - N/A   Clear
1:53 PM 70.0 °F - 33.1 °F 26% 30.06 in 10.0 mi NW 8.1 mph - N/A   Clear
2:53 PM 72.0 °F - 30.9 °F 22% 30.04 in 10.0 mi NW 11.5 mph 19.6 mph N/A   Clear
3:53 PM 73.0 °F - 30.0 °F 20% 30.02 in 10.0 mi NW 13.8 mph 19.6 mph N/A   Clear
4:53 PM 73.9 °F - 27.0 °F 18% 30.00 in 10.0 mi WNW 11.5 mph 24.2 mph N/A   Clear
5:53 PM 73.0 °F - 28.0 °F 19% 30.00 in 10.0 mi West 9.2 mph - N/A   Clear
6:53 PM 70.0 °F - 28.9 °F 22% 30.00 in 10.0 mi North 6.9 mph - N/A   Clear
7:53 PM 60.1 °F - 33.1 °F 36% 30.01 in 9.0 mi NE 6.9 mph - N/A   Clear
8:53 PM 57.0 °F - 30.9 °F 37% 30.00 in 10.0 mi NNE 4.6 mph - N/A   Clear
9:53 PM 57.9 °F - 30.0 °F 35% 29.99 in 10.0 mi East 5.8 mph - N/A   Clear
10:53 PM 55.9 °F - 30.0 °F 37% 29.97 in 10.0 mi ESE 9.2 mph - N/A   Clear
11:53 PM 55.0 °F - 32.0 °F 42% 29.94 in 10.0 mi East 6.9 mph - N/A   Clear